map of CGH home
Great Circle Mapper logo
CGH - Airport
Location
City:  São Paulo, São Paulo, Brazil
Name:Congonhas International Airport
ICAO / IATA:SBSP / CGH

Details
Type:Airport (Aerodrome, Airfield)
Use:Public/Civil, International (customs port of entry)
Latitude:23°37'36"S (-23.626691)
Longitude:46°39'19"W (-46.655374)
Datum:WGS 1984
Elevation:2631 ft (802 m)
Runways:2
Longest:6365 × 147 ft (1940 × 45 m), paved

Time
Time Zone:UTC-3 (DST-2)
Local Time:

Weather
METAR:SBSP 202200Z 17014KT 3000 BR FEW004 OVC006 18/15 Q1020

Related Locations
Nearby:
Farthest:MMD: 12235 mi / 19691 km
Minami Daito Jima, Okinawa, JP

Find:

   beyond  
but within

Other Information
Maps:
NOTAMs:
Links:
Sources:

  
flag of Brazil
flag of São Paulo
flag of São Paulo
  

Sectional Chart

Flight Planning
at skyvector.com

Satellite Image

Google Maps Satellite View

 

Copyright © 2004-2014 Karl L. Swartz. All rights reserved.
The Great Circle Mapper name and logo are trademarks of the Great Circle Mapper.
All other trademarks mentioned herein belong to their respective owners.
Please see credits for attibutions and further copyright information.

  Follow gcmap on Facebook Follow gcmap on Twitter

hCard Microformat

Geo Microformat